Total_Precipitation_Accumulation
0.27 0.26 0.31 0.27 0.25 0.26 0.29 0.32 0.34 0.30 0.27 0.23 0.18 0.16 0.16 0.16 0.16 0.19 0.24 0.28 0.33 0.42 0.47 0.53 0.52 0.52 0.51 0.51 0.48 0.45 0.46 0.52 0.57 0.58 0.63 0.75 0.89 1.01 1.24 1.39 1.43 1.01 0.88
0.09 0.16 0.26 0.26 0.25 0.26 0.26 0.26 0.30 0.30 0.27 0.24 0.24 0.21 0.19 0.18 0.19 0.21 0.24 0.29 0.35 0.42 0.42 0.41 0.38 0.41 0.41 0.40 0.40 0.40 0.47 0.59 0.77 0.86 0.91 0.91 0.99 1.07 1.20 1.20 1.39 0.98 0.85
0.07 0.10 0.18 0.25 0.24 0.24 0.23 0.24 0.27 0.28 0.28 0.26 0.25 0.24 0.21 0.22 0.24 0.26 0.28 0.31 0.37 0.41 0.39 0.36 0.35 0.35 0.34 0.31 0.33 0.38 0.46 0.67 1.01 1.23 1.36 1.07 0.77 1.01 1.15 1.05 0.93 0.79 0.78
0.06 0.07 0.10 0.19 0.23 0.22 0.22 0.24 0.27 0.28 0.27 0.27 0.25 0.25 0.25 0.28 0.31 0.34 0.34 0.33 0.35 0.35 0.32 0.31 0.29 0.30 0.30 0.29 0.33 0.41 0.54 0.71 1.01 1.43 1.59 0.97 0.55 0.74 0.89 0.79 0.74 0.63 0.66
0.10 0.09 0.12 0.18 0.20 0.22 0.22 0.25 0.26 0.27 0.26 0.27 0.27 0.29 0.31 0.32 0.34 0.35 0.35 0.37 0.36 0.33 0.30 0.31 0.27 0.24 0.26 0.28 0.33 0.42 0.59 0.76 1.10 1.38 1.13 0.95 0.88 0.76 0.71 0.71 0.66 0.56 0.53
0.15 0.13 0.18 0.21 0.21 0.22 0.23 0.24 0.24 0.25 0.25 0.26 0.26 0.29 0.33 0.32 0.35 0.39 0.38 0.37 0.36 0.33 0.29 0.32 0.29 0.26 0.26 0.28 0.36 0.46 0.64 0.91 1.12 0.82 0.74 0.83 0.84 0.75 0.72 0.84 0.73 0.60 0.52
0.25 0.23 0.25 0.28 0.27 0.25 0.25 0.25 0.27 0.25 0.24 0.26 0.28 0.30 0.33 0.33 0.37 0.39 0.36 0.34 0.32 0.30 0.26 0.30 0.35 0.33 0.37 0.41 0.46 0.55 0.73 1.01 0.88 0.60 0.74 0.99 0.92 0.75 0.77 0.94 0.90 0.72 0.56
0.39 0.31 0.30 0.37 0.36 0.30 0.29 0.31 0.31 0.28 0.28 0.29 0.29 0.29 0.31 0.34 0.38 0.36 0.35 0.37 0.35 0.32 0.31 0.32 0.34 0.40 0.47 0.47 0.52 0.60 0.74 0.84 0.57 0.57 0.72 0.87 0.76 0.78 0.84 1.01 1.05 0.89 0.72
0.46 0.43 0.39 0.36 0.34 0.34 0.37 0.40 0.38 0.32 0.33 0.33 0.30 0.29 0.29 0.33 0.38 0.37 0.38 0.42 0.40 0.37 0.37 0.38 0.33 0.34 0.38 0.43 0.48 0.55 0.70 0.82 0.70 0.72 0.73 0.73 0.60 0.69 0.86 1.00 0.97 0.92 0.82
0.63 0.59 0.58 0.52 0.46 0.40 0.39 0.43 0.46 0.42 0.41 0.37 0.35 0.35 0.40 0.44 0.45 0.44 0.40 0.46 0.44 0.43 0.48 0.48 0.42 0.40 0.46 0.53 0.60 0.69 0.80 0.68 0.78 0.75 0.87 0.86 0.71 0.81 1.03 1.12 1.01 0.93 0.90
0.92 0.80 0.71 0.61 0.55 0.50 0.41 0.41 0.47 0.49 0.48 0.46 0.51 0.51 0.61 0.79 0.80 0.81 0.72 0.76 0.74 0.72 0.75 0.76 0.72 0.66 0.64 0.60 0.80 1.03 0.84 0.68 0.90 0.94 0.98 0.94 0.90 1.08 1.34 1.34 1.24 1.11 1.03
1.18 0.89 0.82 0.64 0.58 0.50 0.42 0.53 0.66 0.66 0.70 0.73 0.85 0.87 1.09 1.30 1.30 1.04 1.16 1.27 1.24 1.26 1.16 1.15 1.33 1.13 0.89 0.83 1.34 1.66 0.93 0.75 0.82 0.84 0.85 0.90 1.19 1.47 1.67 1.53 1.37 1.30 1.19
1.20 1.19 1.12 0.89 0.79 0.74 0.79 0.73 0.82 0.96 1.11 1.07 1.06 1.19 1.48 1.39 1.23 1.14 1.22 1.54 1.73 1.78 1.70 1.71 1.83 1.54 1.47 1.68 1.86 1.70 1.19 1.10 1.06 1.03 1.02 1.26 1.66 1.94 2.00 1.75 1.57 1.48 1.39
1.51 1.76 1.82 1.48 1.40 1.27 1.11 1.03 0.98 0.99 1.16 1.30 1.49 1.54 1.68 1.76 1.69 1.54 1.58 1.78 1.95 2.10 2.43 2.33 2.24 2.13 2.08 1.97 1.90 1.66 1.47 1.45 1.35 1.48 1.72 1.62 1.77 2.07 2.21 2.03 1.80 1.69 1.62
2.14 2.36 2.52 2.09 1.98 1.84 1.80 1.68 1.44 1.47 1.56 1.64 1.82 1.97 2.03 2.18 2.20 2.15 2.06 2.02 1.88 1.97 2.32 2.56 2.43 2.48 2.43 2.26 1.99 1.81 1.70 1.64 1.55 1.64 1.81 2.01 2.02 2.03 2.19 2.29 2.12 1.90 1.79
2.67 2.78 2.91 2.78 2.77 2.60 2.36 2.37 2.35 2.00 1.97 1.95 1.98 1.93 2.13 2.34 2.61 2.72 2.61 2.47 2.15 2.05 2.14 2.44 2.52 2.70 2.62 2.46 1.89 1.77 1.76 1.78 1.79 1.76 1.87 2.36 2.39 2.01 1.96 2.13 2.26 2.24 2.08
3.57 3.45 3.48 3.45 3.69 3.52 3.08 2.79 2.53 2.35 2.30 2.38 2.35 2.22 2.33 2.53 2.76 2.76 2.57 2.25 2.04 2.05 2.18 2.13 2.16 2.45 2.25 2.12 1.99 2.06 2.05 1.97 1.83 1.80 1.87 2.23 2.25 1.90 1.72 1.74 1.97 2.14 2.24
4.41 4.30 4.11 3.71 4.03 4.00 3.65 3.37 3.07 2.81 2.83 2.76 2.48 2.36 2.30 2.43 2.37 2.44 2.11 1.78 1.87 2.05 2.13 2.17 2.09 2.19 2.20 2.28 2.29 2.24 2.16 2.02 1.66 1.54 1.46 1.49 1.65 1.41 1.51 1.72 1.73 1.75 2.04
4.84 5.03 5.00 4.88 4.54 4.22 4.02 3.86 3.68 3.48 3.15 2.80 2.61 2.47 2.19 1.97 1.84 1.97 1.76 1.68 1.73 1.90 1.94 1.81 2.04 2.22 2.19 2.23 2.14 2.13 1.81 1.64 1.43 1.21 1.14 1.06 1.15 1.22 1.23 1.35 1.45 1.52 1.89
4.81 5.34 5.52 5.51 5.10 4.55 4.06 3.66 3.59 3.40 3.15 2.87 2.62 2.39 2.01 1.80 1.65 1.83 1.71 1.61 1.66 1.79 1.84 1.96 2.14 2.22 2.00 1.95 1.80 1.67 1.40 1.11 1.02 0.96 0.81 0.83 0.90 0.87 0.94 1.11 1.35 1.23 1.65
4.40 5.08 5.18 5.36 4.84 4.18 3.60 3.16 3.06 2.88 2.58 2.50 2.39 2.23 2.07 1.86 1.74 1.87 1.71 1.68 1.58 1.63 1.64 1.73 1.85 1.88 1.63 1.78 2.10 1.73 1.21 0.92 0.84 0.78 0.71 0.72 0.71 0.77 0.96 1.23 1.39 1.44 1.54
3.79 4.49 4.54 4.21 3.95 3.48 3.06 2.85 2.68 2.61 2.32 2.16 2.03 2.01 1.84 1.69 1.65 1.63 1.65 1.50 1.47 1.54 1.54 1.58 1.71 1.68 1.50 1.69 2.04 2.12 1.65 1.28 0.99 0.70 0.67 0.67 0.73 0.87 0.93 1.03 1.36 1.60 1.60
3.44 3.55 3.17 2.97 3.01 2.92 2.72 2.59 2.48 2.43 2.24 1.97 1.78 1.76 1.66 1.47 1.43 1.38 1.37 1.39 1.46 1.31 1.36 1.48 1.62 1.75 1.61 1.51 1.76 2.09 1.84 1.49 1.20 0.90 0.80 0.88 1.01 1.11 1.14 1.28 1.40 1.57 1.66
2.63 2.55 2.49 2.44 2.43 2.59 2.58 2.34 2.15 1.85 1.71 1.64 1.53 1.57 1.59 1.41 1.33 1.27 1.25 1.36 1.40 1.33 1.44 1.26 1.33 1.57 1.72 1.54 1.52 1.57 1.57 1.66 1.66 1.29 0.94 0.86 0.98 1.09 1.15 1.15 1.26 1.50 1.66
1.99 2.04 2.00 2.23 2.32 2.32 2.29 2.23 2.21 1.94 1.74 1.65 1.74 1.93 1.82 1.55 1.29 1.15 1.18 1.29 1.36 1.35 1.39 1.38 1.43 1.38 1.44 1.43 1.44 1.44 1.50 1.65 1.58 1.50 1.26 1.03 1.00 0.90 0.99 1.13 1.30 1.46 1.51
1.32 1.42 1.52 1.76 1.97 2.03 1.98 1.98 2.01 1.97 1.87 1.65 1.60 1.64 1.57 1.43 1.26 1.13 1.14 1.30 1.32 1.31 1.31 1.33 1.33 1.28 1.33 1.38 1.40 1.44 1.53 1.50 1.43 1.56 1.44 1.23 1.14 0.95 1.01 1.13 1.30 1.41 1.42